TimePST,TemperatureF,Dew PointF,Humidity,Sea Level PressureIn,VisibilityMPH,Wind Direction,Wind SpeedMPH,Gust SpeedMPH,PrecipitationIn,Events,Conditions,WindDirDegrees,DateUTC
12:52 AM,26.1,8.1,47,30.22,10.0,Calm,Calm,-,N/A,,Clear,0,2013-01-01 08:52:00
1:52 AM,30.9,7.0,37,30.22,10.0,East,6.9,-,N/A,,Clear,80,2013-01-01 09:52:00
2:52 AM,25.0,9.0,51,30.24,10.0,East,5.8,-,N/A,,Clear,100,2013-01-01 10:52:00
3:52 AM,25.0,9.0,51,30.24,10.0,ENE,5.8,-,N/A,,Clear,60,2013-01-01 11:52:00
4:52 AM,28.9,7.0,40,30.22,10.0,NNE,12.7,-,N/A,,Partly Cloudy,30,2013-01-01 12:52:00
6:52 AM,28.0,8.1,43,30.28,10.0,NE,12.7,-,N/A,,Clear,40,2013-01-01 14:52:00
7:52 AM,30.0,8.1,40,30.30,10.0,NNE,11.5,-,N/A,,Clear,30,2013-01-01 15:52:00
8:52 AM,32.0,8.1,37,30.32,10.0,NE,15.0,-,N/A,,Clear,40,2013-01-01 16:52:00
9:52 AM,37.0,8.1,30,30.33,10.0,NNE,13.8,-,N/A,,Clear,20,2013-01-01 17:52:00
10:52 AM,39.9,8.1,27,30.31,10.0,NNE,15.0,-,N/A,,Clear,30,2013-01-01 18:52:00
11:52 AM,42.1,7.0,24,30.28,10.0,East,9.2,-,N/A,,Clear,80,2013-01-01 19:52:00
12:52 PM,44.1,7.0,22,30.25,10.0,ESE,13.8,-,N/A,,Clear,120,2013-01-01 20:52:00
1:52 PM,44.1,6.1,21,30.22,10.0,ESE,18.4,23.0,N/A,,Clear,120,2013-01-01 21:52:00
2:52 PM,45.0,7.0,21,30.23,10.0,ESE,16.1,20.7,N/A,,Clear,120,2013-01-01 22:52:00
3:52 PM,44.1,7.0,22,30.23,10.0,ESE,16.1,-,N/A,,Clear,110,2013-01-01 23:52:00
4:52 PM,41.0,7.0,25,30.24,10.0,East,12.7,-,N/A,,Clear,90,2013-01-02 00:52:00
5:52 PM,39.0,7.0,27,30.26,10.0,NE,3.5,-,N/A,,Clear,50,2013-01-02 01:52:00
6:52 PM,37.0,8.1,30,30.27,10.0,NNE,15.0,-,N/A,,Clear,30,2013-01-02 02:52:00
7:52 PM,36.0,7.0,30,30.29,10.0,NNE,17.3,-,N/A,,Clear,30,2013-01-02 03:52:00
8:52 PM,35.1,7.0,31,30.29,10.0,NE,18.4,-,N/A,,Clear,40,2013-01-02 04:52:00
9:52 PM,35.1,7.0,31,30.30,10.0,NNE,18.4,-,N/A,,Clear,30,2013-01-02 05:52:00
10:52 PM,34.0,7.0,32,30.29,10.0,NE,16.1,-,N/A,,Clear,40,2013-01-02 06:52:00
11:52 PM,34.0,8.1,34,30.29,10.0,NE,12.7,-,N/A,,Clear,40,2013-01-02 07:52:00